Location: Unspecified
(0.0000°N, 0.0000°E)
Time: 18:59:41
(UTC+00:00)

Tiros 1 despin weight - Pass Details

Date: 27 November 2019
Orbit: 594 x 642 km, 48.2° (Epoch: 08 December)

Event Time Altitude Azimuth Distance (km) Brightness Sun altitude
Rises 06:08:07 0° 200° (SSW) 2,898 ? 4.8°
Reaches altitude 10° 06:10:45 10° 188° (S) 1,981 ? 5.4°
Maximum altitude 06:14:35 27° 130° (SE) 1,189 ? 6.3°
Drops below altitude 10° 06:18:22 10° 72° (ENE) 1,949 ? 7.2°
Sets 06:20:55 0° 60° (ENE) 2,841 ? 7.8°
